This demonstration page uses our WeatherBlox Daily Observations layout. Learn more.

Left ArrowRight Arrow

Hourly Observations for September 9, 2017

Temp ( °F °C ) Dew Point ( °F °C ) Humidity (%) Winds ( mph kmh ) Pressure ( in mb ) Visibility ( mi km ) Precip ( " mm )
12:51 am 00:51 Mostly Cloudy 74 23.3 58 14.4 57 57 N 3 6 29.92 1013 10 16 N/A
1:51 am 01:51 Mostly Cloudy 71 21.7 64 17.8 79 79 NE 7 11 29.91 1013 10 16 0.01 0.25
2:51 am 02:51 Partly Cloudy 71 21.7 62 16.7 73 73 W 5 7 29.92 1013 10 16 N/A
3:51 am 03:51 Partly Cloudy 69 20.6 62 16.7 78 78 NW 7 11 29.91 1013 10 16 N/A
4:51 am 04:51 Mostly Clear 69 20.6 61 16.1 76 76 NW 5 7 29.91 1013 10 16 N/A
5:51 am 05:51 Clear 68 20 63 17.2 84 84 N N/A 29.94 1014 10 16 N/A
6:51 am 06:51 Sunny 69 20.6 63 17.2 81 81 SSE 3 6 29.96 1014 10 16 N/A
7:51 am 07:51 Mostly Cloudy 72 22.2 61 16.1 68 68 S 3 6 29.96 1015 10 16 N/A
8:51 am 08:51 Sunny 77 25 61 16.1 58 58 S 3 6 29.96 1015 10 16 N/A
9:51 am 09:51 Sunny 80 26.7 59 15 49 49 VRB 3 6 29.96 1015 10 16 N/A
10:51 am 10:51 Sunny 86 30 59 15 40 40 ESE 5 7 29.93 1013 10 16 N/A
11:51 am 11:51 Sunny 88 31.1 57 13.9 35 35 VRB 5 7 29.91 1013 10 16 N/A
12:51 pm 12:51 Sunny 91 32.8 56 13.3 31 31 undefined N/A 29.88 1012 10 16 N/A
1:51 pm 13:51 Sunny 90 32.2 56 13.3 32 32 VRB 7 11 29.85 1011 10 16 N/A
2:51 pm 14:51 Sunny 92 33.3 55 12.8 29 29 VRB 5 7 29.81 1010 10 16 N/A
3:51 pm 15:51 Sunny 92 33.3 53 11.7 27 27 VRB 3 6 29.80 1009 10 16 N/A
4:51 pm 16:51 Sunny 90 32.2 54 12.2 29 29 VRB 6 9 29.80 1009 10 16 N/A
5:38 pm 17:38 Sunny with Nearby Thunderstorms 86 30 55 13 35 35 WNW 18 30 29.71 1006 10 16 N/A
5:51 pm 17:51 Sunny 85 29.4 57 13.9 39 39 WNW 18 30 29.82 1010 10 16 N/A
6:51 pm 18:51 Mostly Clear 84 28.9 57 13.9 40 40 W 7 11 29.85 1011 10 16 N/A
7:51 pm 19:51 Clear 83 28.3 57 13.9 41 41 NNE 7 11 29.86 1011 10 16 N/A
8:51 pm 20:51 Mostly Clear 82 27.8 55 12.8 40 40 ENE 17 28 29.88 1012 10 16 N/A
9:51 pm 21:51 Cloudy 79 26.1 57 13.9 47 47 ENE 20 31 29.91 1013 10 16 N/A
10:51 pm 22:51 Partly Cloudy 79 26.1 56 13.3 45 45 ENE 16 26 29.90 1013 10 16 N/A
11:51 pm 23:51 Clear 78 25.6 55 12.8 45 45 ENE 13 20 29.89 1012 10 16 N/A

Powered by AerisWeather